Waarnemingen

Advertentie
Mijn weer
Bastia, Frankrijk (7790): temperatuur & dauwpunt: 19.06.2019 14:00:00 - 25.06.2019 14:00:00 (CEST)Bastia, Frankrijk (7790): temperatuur 5cm: 19.06.2019 14:00:00 - 25.06.2019 14:00:00 (CEST)Bastia, Frankrijk (7790): temperatuur -20cm & temperatuur -100cm: 19.06.2019 14:00:00 - 25.06.2019 14:00:00 (CEST)Bastia, Frankrijk (7790): windsnelheid & windstoten: 19.06.2019 14:00:00 - 25.06.2019 14:00:00 (CEST)Bastia, Frankrijk (7790): windrichting: 19.06.2019 14:00:00 - 25.06.2019 14:00:00 (CEST)Bastia, Frankrijk (7790): luchtdruk: 19.06.2019 14:00:00 - 25.06.2019 14:00:00 (CEST)Bastia, Frankrijk (7790): zicht: 19.06.2019 14:00:00 - 25.06.2019 14:00:00 (CEST)Bastia, Frankrijk (7790): Zonneschijnduur: 19.06.2019 14:00:00 - 25.06.2019 14:00:00 (CEST)Bastia, Frankrijk (7790): neerslag: 19.06.2019 14:00:00 - 25.06.2019 14:00:00 (CEST)
Datum & Tijd tt [°C] td [°C] tt 5cm [°C] tt -20cm [°C] tt -100cm [°C] ff [km/u] ff [kn] fx [km/u] fx [kn] dd ppp [hPa] vv [km] sd [min] rr [mm]
25.06.2019 14:00:00 - - - - - - - - - - - - - -
25.06.2019 13:00:00 31,7 16,0 42,4 24,1 20,8 12 6 24 13 OZO 1020,5 39 60 0,0
25.06.2019 12:00:00 31,5 16,3 40,5 24,2 20,8 10 5 19 11 O 1020,7 26 60 0,0
25.06.2019 11:00:00 29,8 17,9 37,3 24,2 20,8 7 4 16 9 NNO 1020,6 60 60 0,0
25.06.2019 10:00:00 29,2 17,7 33,2 24,2 20,8 9 5 22 12 N 1020,6 48 60 0,0
25.06.2019 09:00:00 28,3 18,1 26,8 24,3 20,7 10 5 16 9 NNO 1020,5 20 60 0,0
25.06.2019 08:00:00 24,6 17,8 21,3 24,4 20,8 5 3 10 6 ZW 1020,1 46 60 0,0
25.06.2019 07:00:00 21,5 15,8 18,4 24,4 20,7 6 3 13 7 ZW 1019,3 59 50 0,0
25.06.2019 06:00:00 20,2 14,6 17,0 24,5 20,7 9 5 15 8 ZW 1018,9 60 0 -
25.06.2019 05:00:00 20,4 14,7 17,3 24,5 20,7 8 5 12 7 WZW 1018,6 60 - 0,0
25.06.2019 04:00:00 21,0 14,6 18,8 24,6 20,7 9 5 15 8 WZW 1018,6 60 0 0,0
25.06.2019 03:00:00 20,8 14,7 18,6 24,6 20,7 9 5 13 7 ZW 1018,9 60 0 0,0
25.06.2019 02:00:00 20,9 15,0 18,1 24,6 20,7 6 4 14 8 ZW 1019,0 60 0 0,0
25.06.2019 01:00:00 21,3 15,4 19,1 24,6 20,7 8 4 11 6 ZW 1019,1 60 0 0,0
25.06.2019 00:00:00 21,8 16,5 16,9 24,5 20,7 8 4 10 5 ZW 1019,1 60 0 0,0
24.06.2019 23:00:00 22,5 16,5 16,9 24,5 20,7 5 3 8 5 WNW 1018,8 60 0 0,0
24.06.2019 22:00:00 22,9 19,5 16,9 24,4 20,7 0 0 5 3 N 1018,3 33 0 0,0
24.06.2019 21:00:00 25,4 19,8 20,1 24,3 20,7 3 2 7 4 ZZO 1017,5 20 9 0,0
24.06.2019 20:00:00 28,3 20,1 28,2 24,2 20,7 5 3 9 5 ZO 1017,4 57 42 0,0
24.06.2019 19:00:00 30,0 19,1 33,2 24,1 20,7 7 4 11 6 ZO 1017,3 47 46 0,0
24.06.2019 18:00:00 30,2 17,3 35,1 24,0 20,7 5 3 14 7 OZO 1017,4 57 60 0,0
24.06.2019 17:00:00 30,0 16,8 41,2 23,9 20,7 9 5 19 11 OZO 1017,5 55 60 0,0
24.06.2019 16:00:00 30,5 17,2 43,2 23,9 20,7 10 6 20 11 O 1017,5 60 60 0,0
24.06.2019 15:00:00 30,4 16,8 41,1 23,8 20,7 8 5 23 12 O 1017,4 60 60 0,0
24.06.2019 14:00:00 30,5 16,5 40,6 23,8 20,6 8 4 26 14 NO 1017,5 55 60 0,0
24.06.2019 13:00:00 29,6 15,3 40,5 23,8 20,6 13 7 26 14 NO 1018,0 50 60 0,0
24.06.2019 12:00:00 29,6 14,6 38,7 23,8 20,6 8 5 21 11 NO 1017,9 45 60 0,0
24.06.2019 11:00:00 28,9 14,7 36,6 23,8 20,6 11 6 31 17 NO 1017,9 45 60 0,0
24.06.2019 10:00:00 28,1 14,0 32,4 23,9 20,6 8 5 18 10 NO 1018,1 19 60 0,0
24.06.2019 09:00:00 25,9 15,9 26,4 24,0 20,6 4 2 12 7 NW 1018,1 51 60 0,0
24.06.2019 08:00:00 23,5 16,5 20,4 24,1 20,6 4 2 8 4 NW 1017,7 50 60 0,0
24.06.2019 07:00:00 20,2 17,8 16,2 24,1 20,6 4 2 10 5 ZW 1017,5 20 51 0,0
24.06.2019 06:00:00 18,1 16,4 12,9 24,2 20,6 6 4 9 5 WZW 1017,6 17 0 -
24.06.2019 05:00:00 - - 15,2 24,2 20,6 5 3 10 5 ZW - 14 0 -
24.06.2019 04:00:00 18,6 16,6 12,5 24,3 20,6 8 4 10 5 WZW 1017,2 21 0 0,0
24.06.2019 03:00:00 18,6 17,3 13,2 24,3 20,6 2 1 9 5 ZZW 1017,2 13 0 0,0
24.06.2019 02:00:00 19,4 17,4 14,6 24,3 20,6 5 3 9 5 ZW 1017,4 18 0 0,0
24.06.2019 01:00:00 - - 17,1 - - 6 3 9 5 ZW - 19 0 0,0
24.06.2019 00:00:00 21,3 18,7 17,5 24,3 20,6 4 2 19 11 WZW 1017,1 20 0 0,0
23.06.2019 23:00:00 20,9 18,7 17,3 24,2 20,6 3 2 10 5 NNO 1016,8 13 0 -
23.06.2019 22:00:00 21,7 19,3 17,4 24,1 20,5 8 4 11 6 ZZO 1016,0 12 0 0,0
23.06.2019 21:00:00 23,0 19,4 19,7 24,0 20,5 4 2 9 5 ZO 1015,5 20 1 0,0
23.06.2019 20:00:00 24,6 19,2 25,8 23,9 20,5 6 3 11 6 O 1015,6 20 45 0,0
23.06.2019 19:00:00 25,6 19,5 30,3 23,8 20,5 7 4 18 10 O 1015,6 36 60 0,0
23.06.2019 18:00:00 26,1 18,8 31,4 23,8 20,5 10 5 21 11 O 1015,6 39 55 0,0
23.06.2019 17:00:00 27,1 18,1 39,6 23,7 20,5 13 7 21 12 O 1015,7 34 60 0,0
23.06.2019 16:00:00 27,4 17,8 38,9 23,6 20,5 14 8 25 14 OZO 1015,9 35 60 0,0
23.06.2019 15:00:00 27,4 18,1 39,0 23,6 20,5 14 8 29 16 O 1016,0 36 60 0,0
23.06.2019 14:00:00 27,4 17,8 38,6 23,6 20,5 13 7 24 13 O 1015,9 35 60 0,0
23.06.2019 13:00:00 27,4 18,7 37,3 23,6 20,5 16 9 29 16 OZO 1015,8 30 60 0,0
23.06.2019 12:00:00 26,9 17,4 36,3 23,6 20,5 19 11 29 16 OZO 1015,7 32 60 0,0
23.06.2019 11:00:00 26,5 18,6 34,7 23,7 20,5 18 10 29 16 ZO 1015,1 19 60 0,0
23.06.2019 10:00:00 26,6 17,7 30,6 23,7 20,4 16 9 26 14 OZO 1014,7 39 60 0,0
23.06.2019 09:00:00 25,3 15,6 24,5 23,8 20,4 6 4 19 10 ZZO 1014,8 46 60 0,0
23.06.2019 08:00:00 22,8 14,4 21,1 23,9 20,4 14 8 29 16 ZZW 1014,4 45 60 0,0
23.06.2019 07:00:00 21,5 14,6 19,1 - - 6 3 22 12 ZZW 1014,0 49 49 0,0
23.06.2019 06:00:00 20,3 14,2 19,1 24,0 20,4 12 7 23 13 ZW 1013,9 41 0 0,0
23.06.2019 05:00:00 20,8 14,4 18,8 24,0 20,4 12 7 25 13 ZW 1013,8 41 0 -
23.06.2019 04:00:00 20,8 14,9 16,1 24,1 20,4 11 6 21 12 ZZW 1013,8 42 0 -
23.06.2019 03:00:00 21,0 13,9 17,3 24,1 20,4 8 5 23 12 WZW 1014,0 43 0 0,0
23.06.2019 02:00:00 20,9 14,8 17,7 24,1 20,4 6 3 18 10 W 1014,0 43 0 0,0
23.06.2019 01:00:00 22,3 16,3 19,0 24,1 20,4 7 4 37 20 WNW 1013,8 39 0 -
23.06.2019 00:00:00 22,0 16,9 19,5 24,1 20,4 11 6 22 12 W 1013,8 26 0 0,0
22.06.2019 23:00:00 23,0 17,2 20,2 24,1 20,4 6 3 34 19 NW 1013,5 32 0 0,0
22.06.2019 22:00:00 23,3 17,3 21,8 24,0 20,4 15 8 31 17 N 1013,1 28 0 0,0
22.06.2019 21:00:00 23,8 18,2 22,0 24,0 20,4 10 5 42 23 NNO 1012,0 28 12 0,0
22.06.2019 20:00:00 25,4 18,8 26,4 23,9 20,4 24 13 48 26 NNW 1012,0 37 60 0,0
22.06.2019 19:00:00 26,4 18,8 30,0 23,8 20,4 22 12 39 21 N 1012,0 19 60 0,0
22.06.2019 18:00:00 27,1 20,4 30,2 23,7 20,3 23 12 39 21 N 1012,1 40 58 0,0
22.06.2019 17:00:00 27,7 19,8 30,6 23,6 20,3 27 15 42 23 N 1012,0 45 33 0,0
22.06.2019 16:00:00 27,6 20,2 37,3 23,6 20,3 19 10 35 19 NNO 1011,8 20 60 0,0
22.06.2019 15:00:00 28,0 20,3 39,2 23,5 20,3 10 6 26 14 O 1012,4 19 60 0,0
22.06.2019 14:00:00 27,4 20,7 35,2 23,5 20,3 15 8 26 14 O 1013,1 19 58 0,0
22.06.2019 13:00:00 27,1 20,9 35,0 23,5 20,3 10 6 31 17 O 1013,3 19 49 0,0
22.06.2019 12:00:00 25,8 21,2 31,7 23,5 20,3 10 5 21 12 O 1013,5 18 28 0,0
22.06.2019 11:00:00 26,4 20,7 27,2 23,6 20,3 8 5 15 8 NO 1013,1 19 19 0,0
22.06.2019 10:00:00 24,5 21,4 27,2 23,6 20,3 9 5 18 10 O 1012,8 13 9 0,0
22.06.2019 09:00:00 24,0 19,9 24,7 23,6 20,3 5 3 10 5 ZZO 1012,6 15 46 0,0
22.06.2019 08:00:00 23,2 21,8 22,3 23,7 20,2 2 1 8 5 ZW 1012,4 13 49 0,2
22.06.2019 07:00:00 22,0 21,2 18,4 23,7 20,2 4 2 6 3 NNW 1012,4 4,5 0 0,0
22.06.2019 06:00:00 - - 17,6 23,8 20,2 3 1 6 3 ZZW - 3,0 0 0,0
22.06.2019 05:00:00 20,8 19,6 18,3 23,8 20,2 3 2 8 4 ZO 1012,7 1,8 - 0,0
22.06.2019 04:00:00 21,7 20,5 20,3 23,8 20,2 4 2 13 7 ONO 1012,2 3,8 0 0,6
22.06.2019 03:00:00 22,2 21,0 21,4 23,9 20,2 5 3 11 6 ZO 1013,3 6 0 0,0
22.06.2019 02:00:00 22,1 20,9 20,1 23,9 20,2 6 3 13 7 W 1013,6 8 0 0,0
22.06.2019 01:00:00 22,0 21,0 20,5 23,9 20,2 4 2 14 8 N 1013,9 7 0 0,0
22.06.2019 00:00:00 21,8 20,8 19,8 23,9 20,2 7 4 12 6 ZO 1013,5 6 0 0,0
21.06.2019 23:00:00 22,2 20,8 19,6 23,9 20,2 5 3 8 5 ONO 1013,9 7 0 0,0
21.06.2019 22:00:00 22,7 21,2 21,2 23,8 20,2 3 2 18 10 ZO 1013,7 8 0 0,0
21.06.2019 21:00:00 23,3 21,4 22,4 23,7 20,1 6 3 14 8 ZO 1013,4 11 0 0,0
21.06.2019 20:00:00 24,0 21,3 24,6 23,7 20,2 8 4 19 10 OZO 1013,7 15 0 0,0
21.06.2019 19:00:00 24,2 20,7 24,9 23,6 20,2 11 6 29 16 ZO 1013,6 20 0 0,0
21.06.2019 18:00:00 24,1 21,2 25,0 23,5 20,2 17 9 29 16 OZO 1013,2 20 0 0,0
21.06.2019 17:00:00 24,9 20,8 27,9 23,5 20,1 14 7 30 16 ZO 1013,2 20 0 0,0
21.06.2019 16:00:00 25,5 21,2 30,3 23,4 20,1 18 10 31 17 OZO 1014,3 20 28 0,0
21.06.2019 15:00:00 26,7 21,0 35,0 23,4 20,1 18 10 34 18 OZO 1014,9 27 53 0,0
21.06.2019 14:00:00 26,2 20,8 35,4 23,3 20,1 20 11 36 19 OZO 1014,5 28 58 0,0
21.06.2019 13:00:00 27,4 20,2 37,0 23,4 20,1 16 9 27 15 O 1014,4 30 60 0,0
21.06.2019 12:00:00 26,7 20,1 35,0 23,4 20,1 17 9 29 16 OZO 1014,9 29 58 0,0
21.06.2019 11:00:00 25,7 20,0 33,1 23,4 20,1 15 8 27 14 OZO 1014,6 20 56 0,0
21.06.2019 10:00:00 25,6 20,2 29,8 23,4 20,1 14 7 22 12 OZO 1014,7 27 52 0,0
21.06.2019 09:00:00 24,7 19,5 25,1 23,5 20,1 6 3 14 8 OZO 1014,6 20 60 0,0
21.06.2019 08:00:00 22,2 19,2 20,1 23,5 20,1 5 3 10 5 ZZW 1014,4 20 56 0,0
21.06.2019 07:00:00 19,9 17,7 18,3 23,6 20,1 6 3 11 6 ZW 1014,6 19 46 -
21.06.2019 06:00:00 19,0 17,1 17,7 23,6 20,1 8 5 12 7 ZZW 1014,4 20 0 -
21.06.2019 05:00:00 18,8 16,9 17,2 23,7 20,0 6 3 11 6 ZW 1014,5 19 0 0,0
21.06.2019 04:00:00 18,8 17,1 17,0 23,7 20,0 7 4 9 5 ZZW 1014,4 19 0 0,0
21.06.2019 03:00:00 19,7 17,8 18,1 23,7 20,0 5 3 10 5 ZW 1014,4 19 0 0,0
21.06.2019 02:00:00 20,2 18,0 18,5 23,7 20,0 5 3 8 5 WZW 1014,5 24 0 0,0
21.06.2019 01:00:00 20,1 18,2 17,4 23,7 20,0 4 2 9 5 ZW 1014,4 20 0 0,0
21.06.2019 00:00:00 20,2 18,3 16,1 23,7 20,0 4 2 7 4 WZW 1014,4 23 0 0,0
20.06.2019 23:00:00 20,7 18,6 16,6 23,6 20,0 5 3 9 5 ZW 1014,1 20 0 -
20.06.2019 22:00:00 21,8 19,4 16,7 23,6 20,0 3 2 5 3 ZW 1013,8 18 0 0,0
20.06.2019 21:00:00 23,2 19,4 19,6 23,5 20,0 5 3 7 4 OZO 1013,1 20 26 0,0
20.06.2019 20:00:00 24,6 18,5 26,8 23,4 20,0 4 2 14 7 OZO 1013,0 39 60 0,0
20.06.2019 19:00:00 25,5 19,6 30,3 23,3 20,0 10 5 16 9 OZO 1013,1 50 60 0,0
20.06.2019 18:00:00 26,3 18,9 31,4 23,2 20,0 9 5 20 11 O 1013,3 60 60 0,0
20.06.2019 17:00:00 26,9 19,5 39,0 23,1 20,0 9 5 19 10 O 1013,4 37 60 0,0
20.06.2019 16:00:00 26,5 19,4 36,5 23,1 20,0 11 6 25 13 O 1013,6 20 60 0,0
20.06.2019 15:00:00 26,8 19,2 37,8 23,0 19,9 14 8 24 13 OZO 1013,7 45 60 0,0
20.06.2019 14:00:00 26,6 19,0 38,0 23,0 19,9 14 7 24 13 O 1014,0 18 60 0,0
20.06.2019 13:00:00 26,6 18,5 38,6 23,0 19,9 11 6 21 11 O 1014,2 48 60 0,0
20.06.2019 12:00:00 26,2 18,6 37,0 23,0 19,9 9 5 25 13 OZO 1014,1 20 60 0,0
20.06.2019 11:00:00 26,1 18,2 34,9 23,1 19,9 9 5 18 10 O 1014,1 33 60 0,0
20.06.2019 10:00:00 25,1 18,3 29,7 23,1 19,9 9 5 17 9 OZO 1014,1 40 49 0,0
20.06.2019 09:00:00 24,8 18,7 24,1 23,2 19,9 5 3 14 8 O 1014,2 20 60 0,0
20.06.2019 08:00:00 21,2 15,7 19,4 23,2 19,9 6 3 12 6 ZZW 1014,3 44 49 0,0
20.06.2019 07:00:00 18,9 15,0 15,4 23,3 19,9 6 3 10 5 ZZW 1014,2 29 50 0,0
20.06.2019 06:00:00 17,1 13,8 14,9 23,4 19,9 7 4 11 6 ZW 1014,0 40 0 -
20.06.2019 05:00:00 17,5 14,4 14,9 23,4 19,8 8 4 11 6 ZW 1013,8 41 0 0,0
20.06.2019 04:00:00 17,7 14,4 12,5 23,5 19,9 6 3 9 5 ZW 1013,8 39 - -
20.06.2019 03:00:00 18,4 15,1 12,5 23,5 19,9 3 2 8 4 WNW 1013,8 36 0 0,0
20.06.2019 02:00:00 18,3 15,7 13,9 23,5 19,8 4 2 10 5 ZW 1013,9 27 0 0,0
20.06.2019 01:00:00 18,9 16,1 14,7 23,5 19,8 4 2 8 5 ZW 1014,2 30 0 0,0
20.06.2019 00:00:00 19,9 16,7 15,6 23,4 19,8 5 3 9 5 ZW 1014,5 30 0 -
19.06.2019 23:00:00 20,2 16,8 15,9 23,4 19,8 3 1 8 4 ZW 1014,2 30 0 0,0
19.06.2019 22:00:00 21,1 18,3 15,9 23,3 19,8 5 3 8 4 ZW 1014,1 29 0 0,0
19.06.2019 21:00:00 23,5 17,7 18,1 23,2 19,8 2 1 9 5 OZO 1013,8 20 24 0,0
19.06.2019 20:00:00 25,3 18,5 26,7 23,1 19,8 6 3 14 8 O 1013,7 35 60 0,0
19.06.2019 19:00:00 26,4 17,7 31,2 23,0 19,8 9 5 14 8 OZO 1013,6 19 60 0,0
19.06.2019 18:00:00 27,0 16,6 31,2 22,9 19,8 8 4 17 9 O 1013,7 43 60 0,0
19.06.2019 17:00:00 27,3 18,0 38,9 22,8 19,7 13 7 20 11 OZO 1014,2 20 60 0,0
19.06.2019 16:00:00 28,1 18,8 39,1 22,7 19,7 11 6 23 12 O 1014,4 20 60 0,0
19.06.2019 15:00:00 27,7 16,9 38,9 22,7 19,8 13 7 22 12 OZO 1014,7 41 60 0,0
19.06.2019 14:00:00 27,9 14,5 39,2 22,7 19,7 13 7 23 12 OZO 1014,8 41 60 0,0

tt = temperatuur
td = dauwpunt
tt 5cm = temperatuur 5cm
tt -20cm = temperatuur -20cm
tt -100cm = temperatuur -100cm
ff = windsnelheid
fx = windstoten
dd = windrichting
ppp = luchtdruk
vv = zicht
sd = Zonneschijnduur
rr = neerslag

Weerstations in de omgeving